Location: ?ejeti?ky
(50.4060°N, 14.9016°E)
Time: 21:41:32
(UTC+00:00)

STARLINK-1364 - Pass Details

Date: 09 October 2020
Orbit: 548 x 551 km, 53.0° (Epoch: 23 October)

Event Time Altitude Azimuth Distance (km) Brightness Sun altitude
Exits shadow 02:45:17 55° 136° (SE) 664 4.0 -24.1°
Drops below altitude 10° 02:48:37 10° 120° (ESE) 1,823 6.8 -23.6°
Sets 02:50:51 0° 118° (ESE) 2,715 7.8 -23.3°
